Weather reports worldwide

Advertisment
Roma/Ciampino, Italy (16239): temperature & dewpoint: 10.12.2019 14:00:00 - 16.12.2019 14:00:00 (CET)Roma/Ciampino, Italy (16239): wind speed: 10.12.2019 14:00:00 - 16.12.2019 14:00:00 (CET)Roma/Ciampino, Italy (16239): wind direction: 10.12.2019 14:00:00 - 16.12.2019 14:00:00 (CET)Roma/Ciampino, Italy (16239): reduced air pressure: 10.12.2019 14:00:00 - 16.12.2019 14:00:00 (CET)Roma/Ciampino, Italy (16239): visibility: 10.12.2019 14:00:00 - 16.12.2019 14:00:00 (CET)Roma/Ciampino, Italy (16239): precipitation: 10.12.2019 14:00:00 - 16.12.2019 14:00:00 (CET)
Date & Time tt [°C] td [°C] ff [km/h] ff [kn] dd ppp [hPa] vv [km] rr [mm]
16.12.2019 14:00:00 17,0 10,0 18 10 SSE - 10 -
16.12.2019 13:00:00 16,5 10,5 16 9 SSE 1021,5 10 -
16.12.2019 12:00:00 16,0 10,0 13 7 SE - 10 -
16.12.2019 11:00:00 15,0 10,0 18 10 SSE - 10 -
16.12.2019 10:00:00 14,9 10,5 16 9 SE 1022,7 10 0,0
16.12.2019 09:00:00 14,0 11,0 16 9 SSE - 10 -
16.12.2019 08:00:00 13,0 11,0 15 8 SSE - 10 -
16.12.2019 07:00:00 13,4 10,9 15 8 SSE 1021,2 10 -
16.12.2019 06:00:00 14,0 11,0 16 9 SSE - 10 -
16.12.2019 05:00:00 14,0 11,0 15 8 SSE - 10 -
16.12.2019 04:00:00 14,1 10,2 8 4 SSE 1020,7 10 0,0
16.12.2019 03:00:00 14,0 11,0 16 9 SSE - 10 -
16.12.2019 02:00:00 14,0 10,0 18 10 SE - 10 -
16.12.2019 01:00:00 14,3 11,1 13 7 SSE 1020,5 10 -
16.12.2019 00:00:00 14,0 10,0 13 7 SE - 10 -
15.12.2019 23:00:00 14,0 11,0 15 8 SSE - 10 -
15.12.2019 22:00:00 14,0 11,1 13 7 SSE 1019,7 10 0,0
15.12.2019 21:00:00 14,0 10,0 15 8 SE - 10 -
15.12.2019 20:00:00 14,0 10,0 13 7 SE - 10 -
15.12.2019 19:00:00 14,4 11,0 13 7 SSE 1019,3 10 -
15.12.2019 18:00:00 14,0 11,0 11 6 SSE - 10 -
15.12.2019 17:00:00 14,0 11,0 9 5 SSE - 10 -
15.12.2019 16:00:00 15,5 11,1 8 4 SSE 1018,5 10 0,0
15.12.2019 15:00:00 16,0 11,0 11 6 S - 10 -
15.12.2019 14:00:00 16,0 11,0 16 9 SSE - 10 -
15.12.2019 13:00:00 16,3 10,6 16 9 SSE 1018,1 10 -
15.12.2019 12:00:00 14,0 10,0 4 2 - - 10 -
15.12.2019 11:00:00 13,0 10,0 4 2 - - 10 -
15.12.2019 10:00:00 10,6 8,8 4 2 N 1017,9 10 0,0
15.12.2019 09:00:00 13,0 10,0 8 4 SE - 10 -
15.12.2019 08:00:00 12,0 10,0 16 9 SSE - 10 -
15.12.2019 07:00:00 11,4 8,7 11 6 SSE 1016,5 10 -
15.12.2019 06:00:00 9,0 7,0 8 4 SE - 10 -
15.12.2019 05:00:00 9,0 6,0 11 6 ESE - 10 -
15.12.2019 04:00:00 8,9 6,1 11 6 ESE 1015,4 10 0,0
15.12.2019 03:00:00 - - - - - - - -
15.12.2019 02:00:00 6,0 5,0 9 5 SE - 10 -
15.12.2019 01:00:00 7,4 5,1 4 2 - 1014,2 10 -
15.12.2019 00:00:00 7,0 5,0 8 4 ESE - 10 -
14.12.2019 23:00:00 7,0 5,0 8 4 SE - 10 -
14.12.2019 22:00:00 6,6 4,1 5 3 ESE 1013,1 10 0,0
14.12.2019 21:00:00 9,0 4,0 9 5 ENE - 10 -
14.12.2019 20:00:00 8,0 4,0 8 4 ESE - 10 -
14.12.2019 19:00:00 7,9 3,9 5 3 SE 1011,4 10 -
14.12.2019 18:00:00 10,0 4,0 2 1 - - 10 -
14.12.2019 17:00:00 12,0 3,0 8 4 NNW - 10 -
14.12.2019 16:00:00 13,2 3,3 9 5 NNE 1007,6 10 0,0
14.12.2019 15:00:00 14,0 2,0 13 7 N - 10 -
14.12.2019 14:00:00 13,0 0,0 11 6 NNW - 10 -
14.12.2019 13:00:00 13,1 0,7 11 6 N 1005,6 10 -
14.12.2019 12:00:00 12,0 2,0 13 7 NNE - 10 -
14.12.2019 11:00:00 10,0 1,0 13 7 NE - 10 -
14.12.2019 10:00:00 7,8 0,9 9 5 NNE 1004,0 10 0,0
14.12.2019 09:00:00 6,0 0,0 11 6 NW - 10 -
14.12.2019 08:00:00 5,0 -2,0 15 8 NE - 10 -
14.12.2019 07:00:00 4,9 -1,1 13 7 NE 1000,9 10 -
14.12.2019 06:00:00 4,0 0,0 9 5 NE - 10 -
14.12.2019 05:00:00 4,0 1,0 8 4 NNE - 10 -
14.12.2019 04:00:00 4,5 1,2 11 6 N 997,0 10 0,0
14.12.2019 03:00:00 5,0 2,0 9 5 NNE - 10 -
14.12.2019 02:00:00 5,0 2,0 11 6 NNE - 10 -
14.12.2019 01:00:00 5,9 1,8 9 5 NNE 992,9 10 -
14.12.2019 00:00:00 7,0 2,0 13 7 NNE - 10 -
13.12.2019 23:00:00 9,0 3,0 21 11 N - 10 -
13.12.2019 22:00:00 9,1 3,9 26 14 NNW 989,3 10 0,0
13.12.2019 21:00:00 10,0 3,0 24 13 NW - 10 -
13.12.2019 20:00:00 11,0 4,0 24 13 WNW - 10 -
13.12.2019 19:00:00 11,2 4,5 18 10 WNW 987,2 10 -
13.12.2019 18:00:00 11,0 5,0 18 10 W - 10 -
13.12.2019 17:00:00 14,0 10,0 26 14 WSW - 6 -
13.12.2019 16:00:00 14,1 11,2 26 14 SW 986,5 8 0,0
13.12.2019 15:00:00 13,0 11,0 26 14 SSW - 2,5 -
13.12.2019 14:00:00 13,0 11,0 21 11 SSW - 8 -
13.12.2019 13:00:00 11,9 10,9 18 10 S 991,6 7 -
13.12.2019 12:00:00 11,0 9,0 22 12 SSE - 10 -
13.12.2019 11:00:00 10,0 8,0 26 14 SSE - 7 -
13.12.2019 10:00:00 10,1 8,0 28 15 SSE 995,7 8 0,0
13.12.2019 09:00:00 9,0 7,0 26 14 SSE - 6 -
13.12.2019 08:00:00 9,0 5,0 24 13 SSE - 7 -
13.12.2019 07:00:00 8,9 4,6 22 12 SSE 998,7 10 -
13.12.2019 06:00:00 9,0 3,0 13 7 SE - 10 -
13.12.2019 05:00:00 6,0 3,0 11 6 SE - 10 -
13.12.2019 04:00:00 5,1 2,3 9 5 ESE 1001,3 10 0,0
13.12.2019 03:00:00 - - - - - - - -
13.12.2019 02:00:00 4,0 3,0 9 5 ESE - 10 -
13.12.2019 01:00:00 4,3 2,6 9 5 ESE 1003,4 10 -
13.12.2019 00:00:00 5,0 3,0 9 5 ESE - 10 -
12.12.2019 23:00:00 5,0 4,0 8 4 ESE - 10 -
12.12.2019 22:00:00 6,0 4,2 5 3 E 1004,3 10 0,0
12.12.2019 21:00:00 7,0 5,0 8 4 ESE - 10 -
12.12.2019 20:00:00 7,0 5,0 5 3 SE - 10 -
12.12.2019 19:00:00 6,8 5,0 8 4 W 1004,5 10 -
12.12.2019 18:00:00 8,0 5,0 4 2 - - 10 -
12.12.2019 17:00:00 8,0 5,0 13 7 N - 10 -
12.12.2019 16:00:00 8,9 4,0 5 3 NE 1003,6 10 0,0
12.12.2019 15:00:00 8,0 5,0 18 10 NE - 10 -
12.12.2019 14:00:00 8,0 5,0 16 9 NNE - 10 -
12.12.2019 13:00:00 11,5 5,5 11 6 S 1004,0 10 -
12.12.2019 12:00:00 11,0 4,0 2 1 - - 10 -
12.12.2019 11:00:00 8,0 3,0 5 3 E - 10 -
12.12.2019 10:00:00 7,7 1,7 2 1 - 1005,1 10 0,0
12.12.2019 09:00:00 6,0 2,0 4 2 - - 10 -
12.12.2019 08:00:00 4,0 2,0 4 2 - - 10 -
12.12.2019 07:00:00 4,0 1,4 2 1 - 1005,0 10 -
12.12.2019 06:00:00 5,0 0,0 5 3 ESE - 10 -
12.12.2019 05:00:00 4,0 1,0 9 5 ENE - 10 -
12.12.2019 04:00:00 3,3 0,5 5 3 ENE 1006,4 10 0,0
12.12.2019 03:00:00 4,0 2,0 9 5 E - 10 -
12.12.2019 02:00:00 4,0 0,0 2 1 - - 10 -
12.12.2019 01:00:00 4,4 0,3 5 3 NNE 1007,9 10 -
12.12.2019 00:00:00 4,0 0,0 4 2 - - 10 -
11.12.2019 23:00:00 5,0 0,0 5 3 NNE - 10 -
11.12.2019 22:00:00 5,0 -0,3 5 3 NNE 1009,3 10 0,0
11.12.2019 21:00:00 6,0 0,0 5 3 NE - 10 -
11.12.2019 20:00:00 7,0 1,0 8 4 E - 10 -
11.12.2019 19:00:00 6,5 0,5 4 2 - 1009,8 10 -
11.12.2019 18:00:00 8,0 0,0 8 4 NE - 10 -
11.12.2019 17:00:00 10,0 0,0 9 5 NNE - 10 -
11.12.2019 16:00:00 11,1 0,3 11 6 N 1009,9 10 0,0
11.12.2019 15:00:00 12,0 0,0 13 7 N - 10 -
11.12.2019 14:00:00 12,0 1,0 11 6 N - 10 -
11.12.2019 13:00:00 11,4 0,7 15 8 N 1010,8 10 -
11.12.2019 12:00:00 10,0 2,0 13 7 N - 10 -
11.12.2019 11:00:00 8,0 1,0 18 10 N - 10 -
11.12.2019 10:00:00 7,1 -0,1 18 10 NNE 1012,6 10 0,0
11.12.2019 09:00:00 5,0 0,0 15 8 NE - 10 -
11.12.2019 08:00:00 4,0 0,0 11 6 NE - 10 -
11.12.2019 07:00:00 4,9 -0,7 13 7 NNE 1012,5 10 -
11.12.2019 06:00:00 5,0 -1,0 11 6 NE - 10 -
11.12.2019 05:00:00 5,0 0,0 15 8 NNE - 10 -
11.12.2019 04:00:00 5,8 0,2 16 9 NE 1012,7 10 0,0
11.12.2019 03:00:00 6,0 1,0 18 10 NNE - 10 -
11.12.2019 02:00:00 6,0 1,0 15 8 NNE - 10 -
11.12.2019 01:00:00 6,2 1,0 13 7 NNE 1013,6 10 -
11.12.2019 00:00:00 7,0 1,0 16 9 NNE - 10 -
10.12.2019 23:00:00 7,0 2,0 15 8 NNE - 10 -
10.12.2019 22:00:00 7,5 1,9 15 8 NNE 1013,1 10 0,0
10.12.2019 21:00:00 8,0 2,0 15 8 NNE - 10 -
10.12.2019 20:00:00 9,0 3,0 15 8 NNE - 10 -
10.12.2019 19:00:00 9,3 2,8 21 11 NNE 1012,2 10 -
10.12.2019 18:00:00 11,0 2,0 11 6 NNE - 10 -
10.12.2019 17:00:00 12,0 2,0 21 11 N - 10 -
10.12.2019 16:00:00 13,1 2,1 22 12 N 1009,7 10 0,0
10.12.2019 15:00:00 14,0 3,0 26 14 N - 10 -
10.12.2019 14:00:00 14,0 5,0 28 15 N - 10 -

tt = temperature
td = dewpoint
ff = wind speed
dd = wind direction
ppp = reduced air pressure
vv = visibility
rr = precipitation

Next stations